QPF
0.00 0.00 0.00 0.00 0.00 0.00 0.00 0.00 0.00 0.00 0.00 0.00 0.00 0.00 0.00 0.00 0.00 0.00 0.00 0.00 0.00 0.00 0.00 0.00 0.00 0.00 0.00 0.00 0.00 0.01 0.01 0.00 0.01 0.01 0.02 0.02 0.02 0.01 0.02 0.02 0.03 0.04 0.05 0.06
0.00 0.00 0.00 0.00 0.00 0.00 0.00 0.00 0.00 0.00 0.00 0.00 0.00 0.00 0.00 0.00 0.00 0.00 0.00 0.00 0.00 0.00 0.00 0.00 0.00 0.00 0.00 0.00 0.00 0.01 0.01 0.01 0.01 0.02 0.02 0.03 0.03 0.02 0.03 0.03 0.04 0.05 0.04 0.05
0.00 0.00 0.00 0.00 0.00 0.00 0.00 0.00 0.00 0.00 0.00 0.00 0.00 0.00 0.00 0.00 0.00 0.00 0.00 0.00 0.00 0.00 0.00 0.00 0.00 0.00 0.00 0.00 0.00 0.00 0.01 0.01 0.02 0.03 0.04 0.04 0.04 0.03 0.04 0.04 0.06 0.05 0.05 0.06
0.01 0.00 0.00 0.00 0.00 0.00 0.00 0.00 0.00 0.00 0.00 0.00 0.00 0.00 0.00 0.00 0.00 0.00 0.00 0.00 0.00 0.00 0.00 0.00 0.00 0.00 0.00 0.00 0.00 0.00 0.00 0.01 0.01 0.03 0.04 0.05 0.05 0.04 0.04 0.05 0.05 0.04 0.04 0.09
0.01 0.01 0.00 0.00 0.00 0.00 0.00 0.00 0.00 0.00 0.00 0.00 0.00 0.00 0.00 0.00 0.00 0.00 0.00 0.00 0.00 0.00 0.00 0.00 0.00 0.00 0.00 0.00 0.00 0.00 0.00 0.01 0.01 0.01 0.02 0.03 0.04 0.03 0.04 0.04 0.04 0.04 0.04 0.06
0.02 0.01 0.00 0.00 0.00 0.00 0.00 0.00 0.00 0.00 0.00 0.00 0.00 0.00 0.00 0.00 0.00 0.00 0.00 0.00 0.00 0.00 0.00 0.00 0.00 0.00 0.00 0.00 0.00 0.00 0.00 0.01 0.01 0.02 0.02 0.02 0.02 0.02 0.02 0.02 0.03 0.04 0.04 0.03
0.02 0.02 0.00 0.00 0.00 0.00 0.00 0.00 0.00 0.00 0.00 0.00 0.00 0.00 0.00 0.00 0.00 0.00 0.00 0.00 0.00 0.00 0.00 0.00 0.00 0.00 0.00 0.00 0.00 0.00 0.00 0.01 0.01 0.02 0.02 0.02 0.02 0.01 0.02 0.01 0.01 0.02 0.02 0.03
0.01 0.02 0.00 0.00 0.00 0.00 0.00 0.00 0.00 0.00 0.00 0.00 0.00 0.00 0.00 0.00 0.00 0.00 0.00 0.00 0.00 0.00 0.00 0.00 0.00 0.00 0.00 0.00 0.00 0.00 0.01 0.01 0.01 0.02 0.01 0.02 0.01 0.01 0.02 0.01 0.01 0.01 0.02 0.02
0.01 0.00 0.00 0.00 0.00 0.00 0.00 0.00 0.00 0.00 0.00 0.00 0.00 0.00 0.00 0.00 0.00 0.00 0.00 0.00 0.00 0.00 0.00 0.00 0.00 0.00 0.00 0.00 0.00 0.01 0.01 0.01 0.01 0.02 0.02 0.01 0.01 0.01 0.01 0.01 0.01 0.01 0.01 0.01
0.00 0.00 0.00 0.00 0.00 0.00 0.00 0.00 0.00 0.00 0.00 0.00 0.00 0.00 0.00 0.00 0.00 0.00 0.00 0.00 0.00 0.00 0.00 0.00 0.00 0.00 0.00 0.00 0.01 0.01 0.01 0.01 0.01 0.02 0.02 0.01 0.01 0.01 0.01 0.01 0.01 0.01 0.01 0.01
0.00 0.00 0.00 0.00 0.00 0.00 0.00 0.00 0.00 0.00 0.00 0.00 0.00 0.00 0.00 0.00 0.00 0.00 0.00 0.00 0.00 0.00 0.00 0.00 0.00 0.00 0.00 0.00 0.00 0.00 0.00 0.01 0.01 0.01 0.01 0.01 0.01 0.00 0.00 0.01 0.01 0.01 0.01 0.01
0.00 0.00 0.00 0.00 0.00 0.00 0.00 0.00 0.00 0.00 0.00 0.00 0.00 0.00 0.00 0.00 0.00 0.00 0.00 0.00 0.00 0.00 0.00 0.00 0.00 0.00 0.00 0.00 0.00 0.00 0.00 0.01 0.01 0.01 0.01 0.01 0.00 0.00 0.00 0.00 0.00 0.01 0.01 0.01
0.00 0.00 0.00 0.00 0.00 0.00 0.00 0.00 0.00 0.00 0.00 0.00 0.00 0.00 0.00 0.00 0.00 0.00 0.00 0.00 0.00 0.00 0.00 0.00 0.00 0.00 0.00 0.00 0.00 0.00 0.00 0.01 0.01 0.01 0.01 0.00 0.00 0.00 0.00 0.00 0.00 0.00 0.00 0.00
0.00 0.00 0.00 0.00 0.00 0.00 0.00 0.00 0.00 0.00 0.00 0.00 0.00 0.00 0.00 0.00 0.00 0.00 0.00 0.00 0.00 0.00 0.00 0.00 0.00 0.00 0.00 0.00 0.00 0.00 0.00 0.00 0.00 0.00 0.00 0.00 0.00 0.00 0.00 0.00 0.00 0.00 0.00 0.00
0.00 0.00 0.00 0.00 0.00 0.00 0.00 0.00 0.00 0.00 0.00 0.00 0.00 0.00 0.00 0.00 0.00 0.00 0.00 0.00 0.00 0.00 0.00 0.00 0.00 0.00 0.00 0.00 0.00 0.00 0.00 0.00 0.00 0.00 0.00 0.00 0.00 0.00 0.00 0.00 0.00 0.00 0.00 0.00
0.00 0.00 0.00 0.00 0.00 0.00 0.00 0.00 0.00 0.00 0.00 0.00 0.00 0.00 0.00 0.00 0.00 0.00 0.00 0.00 0.00 0.00 0.00 0.00 0.00 0.00 0.00 0.00 0.00 0.00 0.00 0.00 0.00 0.00 0.00 0.00 0.00 0.00 0.00 0.00 0.00 0.00 0.00 0.00
0.00 0.00 0.00 0.00 0.00 0.00 0.00 0.00 0.00 0.00 0.00 0.00 0.00 0.00 0.00 0.00 0.00 0.00 0.00 0.00 0.00 0.00 0.00 0.00 0.00 0.00 0.00 0.00 0.00 0.00 0.00 0.00 0.00 0.00 0.00 0.00 0.00 0.00 0.00 0.00 0.00 0.00 0.00 0.00
0.00 0.00 0.00 0.00 0.00 0.00 0.00 0.00 0.00 0.00 0.00 0.00 0.00 0.00 0.00 0.00 0.00 0.00 0.00 0.00 0.00 0.00 0.00 0.00 0.00 0.00 0.00 0.00 0.00 0.00 0.00 0.00 0.00 0.00 0.00 0.00 0.00 0.00 0.00 0.00 0.00 0.00 0.00 0.00
0.00 0.00 0.00 0.00 0.00 0.00 0.00 0.00 0.00 0.00 0.00 0.00 0.00 0.00 0.00 0.00 0.00 0.00 0.00 0.00 0.00 0.00 0.00 0.01 0.01 0.00 0.00 0.00 0.00 0.00 0.00 0.00 0.00 0.00 0.00 0.00 0.00 0.00 0.00 0.00 0.00 0.00 0.00 0.00
0.00 0.00 0.00 0.00 0.00 0.00 0.00 0.00 0.00 0.00 0.00 0.00 0.00 0.00 0.00 0.00 0.00 0.00 0.00 0.00 0.00 0.00 0.00 0.00 0.00 0.00 0.00 0.00 0.00 0.00 0.00 0.00 0.00 0.00 0.00 0.00 0.00 0.00 0.00 0.00 0.00 0.01 0.01 0.00
0.00 0.00 0.00 0.00 0.00 0.00 0.00 0.00 0.00 0.00 0.00 0.00 0.00 0.00 0.00 0.00 0.00 0.00 0.00 0.00 0.00 0.00 0.00 0.00 0.00 0.00 0.00 0.00 0.00 0.00 0.00 0.00 0.00 0.00 0.00 0.00 0.00 0.00 0.00 0.00 0.00 0.00 0.01 0.01
0.00 0.00 0.00 0.00 0.00 0.00 0.00 0.00 0.00 0.00 0.00 0.00 0.00 0.00 0.00 0.00 0.00 0.00 0.00 0.00 0.00 0.00 0.00 0.00 0.00 0.00 0.00 0.00 0.00 0.00 0.00 0.00 0.00 0.00 0.00 0.00 0.00 0.00 0.00 0.00 0.00 0.00 0.00 0.01
0.00 0.00 0.00 0.00 0.00 0.00 0.00 0.00 0.00 0.00 0.00 0.01 0.00 0.00 0.00 0.00 0.00 0.00 0.01 0.01 0.01 0.01 0.01 0.01 0.01 0.01 0.00 0.00 0.00 0.00 0.00 0.00 0.00 0.00 0.00 0.00 0.00 0.00 0.00 0.00 0.00 0.00 0.00 0.00
0.00 0.00 0.00 0.00 0.00 0.00 0.00 0.00 0.00 0.01 0.01 0.01 0.01 0.01 0.01 0.01 0.01 0.01 0.01 0.01 0.01 0.01 0.01 0.01 0.01 0.01 0.00 0.00 0.00 0.00 0.01 0.01 0.01 0.01 0.00 0.00 0.00 0.00 0.00 0.00 0.00 0.01 0.01 0.01
0.00 0.00 0.00 0.01 0.01 0.01 0.01 0.01 0.01 0.01 0.01 0.01 0.01 0.01 0.01 0.01 0.00 0.00 0.00 0.00 0.00 0.00 0.00 0.00 0.01 0.01 0.00 0.00 0.00 0.00 0.01 0.01 0.01 0.00 0.00 0.00 0.00 0.00 0.00 0.00 0.01 0.01 0.01 0.01
0.00 0.00 0.00 0.01 0.01 0.01 0.01 0.01 0.01 0.01 0.01 0.00 0.01 0.00 0.00 0.00 0.00 0.00 0.00 0.00 0.00 0.00 0.00 0.00 0.00 0.00 0.00 0.00 0.00 0.00 0.00 0.00 0.00 0.00 0.00 0.00 0.00 0.00 0.00 0.01 0.01 0.01 0.01 0.01
0.00 0.00 0.00 0.00 0.00 0.00 0.01 0.01 0.01 0.01 0.01 0.00 0.00 0.00 0.00 0.00 0.00 0.00 0.00 0.00 0.00 0.00 0.00 0.00 0.00 0.00 0.00 0.00 0.00 0.00 0.01 0.01 0.01 0.01 0.01 0.01 0.01 0.01 0.01 0.01 0.01 0.01 0.01 0.01
MSLP
1018.56 1018.17 1017.75 1017.32 1016.88 1016.44 1015.99 1015.53 1015.04 1014.51 1013.95 1013.38 1012.81 1012.28 1011.83 1011.51 1011.33 1011.33 1011.51 1011.86 1012.38 1013.01 1013.72 1014.47 1015.19 1015.87 1016.45 1016.92 1017.29 1017.54 1017.69 1017.78 1017.81 1017.81 1017.79 1017.76 1017.71 1017.63 1017.48 1017.25 1016.91 1016.45 1015.87 1015.19
1018.48 1017.92 1017.32 1016.70 1016.10 1015.53 1014.99 1014.48 1013.99 1013.50 1013.00 1012.50 1012.00 1011.52 1011.10 1010.78 1010.58 1010.54 1010.68 1011.00 1011.50 1012.13 1012.87 1013.66 1014.45 1015.20 1015.87 1016.43 1016.87 1017.18 1017.40 1017.53 1017.61 1017.65 1017.68 1017.69 1017.69 1017.66 1017.57 1017.40 1017.13 1016.75 1016.26 1015.67
1018.38 1017.65 1016.87 1016.07 1015.29 1014.59 1013.96 1013.40 1012.91 1012.47 1012.05 1011.64 1011.23 1010.84 1010.50 1010.21 1010.04 1010.00 1010.12 1010.42 1010.90 1011.53 1012.27 1013.08 1013.91 1014.70 1015.42 1016.04 1016.53 1016.89 1017.15 1017.33 1017.44 1017.52 1017.58 1017.63 1017.67 1017.67 1017.64 1017.52 1017.32 1017.02 1016.61 1016.12
1018.25 1017.38 1016.43 1015.47 1014.56 1013.74 1013.03 1012.45 1011.97 1011.58 1011.24 1010.94 1010.65 1010.38 1010.13 1009.92 1009.80 1009.78 1009.91 1010.20 1010.65 1011.25 1011.98 1012.77 1013.60 1014.40 1015.14 1015.77 1016.29 1016.68 1016.97 1017.16 1017.30 1017.41 1017.49 1017.56 1017.62 1017.66 1017.66 1017.59 1017.44 1017.20 1016.87 1016.47
1018.06 1017.09 1016.03 1014.97 1013.96 1013.07 1012.32 1011.72 1011.28 1010.95 1010.71 1010.52 1010.36 1010.20 1010.05 1009.93 1009.87 1009.89 1010.02 1010.29 1010.72 1011.28 1011.96 1012.72 1013.51 1014.28 1015.00 1015.62 1016.13 1016.53 1016.82 1017.03 1017.18 1017.29 1017.39 1017.47 1017.55 1017.60 1017.61 1017.57 1017.46 1017.27 1017.00 1016.68
1017.78 1016.76 1015.65 1014.55 1013.51 1012.60 1011.86 1011.29 1010.90 1010.64 1010.49 1010.41 1010.35 1010.30 1010.25 1010.20 1010.19 1010.23 1010.37 1010.62 1011.01 1011.52 1012.13 1012.83 1013.55 1014.27 1014.94 1015.53 1016.02 1016.41 1016.69 1016.90 1017.05 1017.16 1017.26 1017.34 1017.42 1017.47 1017.49 1017.47 1017.38 1017.23 1017.01 1016.74
1017.34 1016.33 1015.25 1014.18 1013.18 1012.32 1011.63 1011.13 1010.80 1010.62 1010.55 1010.55 1010.58 1010.60 1010.61 1010.62 1010.64 1010.70 1010.82 1011.04 1011.38 1011.82 1012.36 1012.98 1013.63 1014.28 1014.90 1015.44 1015.89 1016.26 1016.53 1016.73 1016.88 1016.99 1017.08 1017.16 1017.22 1017.27 1017.29 1017.28 1017.21 1017.09 1016.92 1016.71
1016.71 1015.77 1014.77 1013.79 1012.90 1012.14 1011.55 1011.14 1010.90 1010.79 1010.79 1010.84 1010.92 1010.98 1011.03 1011.05 1011.08 1011.12 1011.22 1011.41 1011.68 1012.06 1012.53 1013.07 1013.65 1014.23 1014.78 1015.28 1015.70 1016.04 1016.30 1016.49 1016.63 1016.74 1016.82 1016.89 1016.96 1017.00 1017.03 1017.02 1016.97 1016.89 1016.76 1016.60
1015.87 1015.02 1014.16 1013.33 1012.59 1011.97 1011.52 1011.22 1011.06 1011.03 1011.07 1011.15 1011.24 1011.31 1011.35 1011.37 1011.37 1011.40 1011.46 1011.60 1011.82 1012.14 1012.54 1013.01 1013.52 1014.04 1014.55 1015.01 1015.40 1015.72 1015.97 1016.16 1016.29 1016.40 1016.48 1016.55 1016.61 1016.66 1016.70 1016.71 1016.69 1016.64 1016.57 1016.47
1014.83 1014.11 1013.40 1012.74 1012.18 1011.74 1011.43 1011.25 1011.18 1011.21 1011.28 1011.37 1011.45 1011.50 1011.51 1011.50 1011.47 1011.46 1011.48 1011.58 1011.75 1012.01 1012.36 1012.78 1013.24 1013.71 1014.17 1014.60 1014.97 1015.28 1015.53 1015.72 1015.86 1015.97 1016.06 1016.13 1016.20 1016.26 1016.31 1016.35 1016.37 1016.37 1016.35 1016.32
1013.67 1013.06 1012.51 1012.04 1011.66 1011.39 1011.23 1011.16 1011.18 1011.25 1011.35 1011.43 1011.49 1011.51 1011.49 1011.43 1011.37 1011.32 1011.31 1011.36 1011.50 1011.72 1012.02 1012.39 1012.81 1013.25 1013.68 1014.09 1014.44 1014.75 1015.00 1015.19 1015.34 1015.46 1015.56 1015.65 1015.73 1015.81 1015.88 1015.95 1016.02 1016.07 1016.11 1016.14
1012.49 1011.99 1011.58 1011.27 1011.05 1010.94 1010.92 1010.96 1011.05 1011.16 1011.27 1011.35 1011.39 1011.37 1011.32 1011.23 1011.14 1011.06 1011.02 1011.05 1011.15 1011.34 1011.60 1011.94 1012.32 1012.72 1013.12 1013.51 1013.85 1014.15 1014.40 1014.60 1014.76 1014.89 1015.01 1015.11 1015.21 1015.31 1015.41 1015.52 1015.62 1015.72 1015.81 1015.90
1011.42 1011.01 1010.71 1010.53 1010.46 1010.47 1010.56 1010.69 1010.84 1010.99 1011.11 1011.19 1011.22 1011.19 1011.11 1011.01 1010.90 1010.80 1010.75 1010.75 1010.83 1010.98 1011.21 1011.50 1011.84 1012.20 1012.57 1012.92 1013.24 1013.53 1013.78 1013.98 1014.15 1014.30 1014.43 1014.55 1014.66 1014.79 1014.91 1015.05 1015.19 1015.32 1015.46 1015.58
1010.57 1010.23 1010.02 1009.94 1009.96 1010.07 1010.24 1010.44 1010.64 1010.82 1010.96 1011.05 1011.08 1011.05 1010.97 1010.87 1010.76 1010.66 1010.59 1010.58 1010.63 1010.74 1010.92 1011.16 1011.44 1011.75 1012.06 1012.38 1012.67 1012.93 1013.17 1013.37 1013.55 1013.70 1013.84 1013.98 1014.11 1014.25 1014.40 1014.56 1014.72 1014.88 1015.04 1015.19
1010.04 1009.74 1009.60 1009.58 1009.67 1009.84 1010.05 1010.29 1010.53 1010.73 1010.89 1011.00 1011.05 1011.04 1010.99 1010.90 1010.80 1010.70 1010.63 1010.59 1010.61 1010.67 1010.80 1010.96 1011.17 1011.41 1011.66 1011.92 1012.16 1012.40 1012.61 1012.81 1012.99 1013.15 1013.30 1013.45 1013.59 1013.74 1013.90 1014.07 1014.24 1014.41 1014.58 1014.73
1009.84 1009.59 1009.48 1009.50 1009.62 1009.82 1010.06 1010.31 1010.57 1010.79 1010.97 1011.10 1011.17 1011.19 1011.17 1011.11 1011.03 1010.94 1010.86 1010.80 1010.77 1010.78 1010.83 1010.92 1011.04 1011.20 1011.37 1011.56 1011.76 1011.95 1012.14 1012.32 1012.50 1012.66 1012.82 1012.98 1013.13 1013.29 1013.46 1013.62 1013.80 1013.97 1014.13 1014.29
1009.97 1009.75 1009.67 1009.71 1009.83 1010.03 1010.26 1010.51 1010.76 1010.99 1011.18 1011.33 1011.43 1011.48 1011.49 1011.46 1011.40 1011.32 1011.23 1011.15 1011.08 1011.03 1011.00 1011.00 1011.04 1011.10 1011.20 1011.32 1011.45 1011.61 1011.77 1011.94 1012.11 1012.28 1012.45 1012.61 1012.78 1012.94 1013.11 1013.27 1013.44 1013.60 1013.76 1013.91
1010.35 1010.17 1010.10 1010.13 1010.24 1010.41 1010.62 1010.85 1011.08 1011.29 1011.48 1011.64 1011.76 1011.84 1011.88 1011.87 1011.83 1011.76 1011.67 1011.56 1011.45 1011.34 1011.24 1011.17 1011.12 1011.11 1011.13 1011.19 1011.27 1011.39 1011.53 1011.69 1011.86 1012.03 1012.21 1012.39 1012.56 1012.73 1012.89 1013.06 1013.22 1013.38 1013.53 1013.67
1010.88 1010.73 1010.67 1010.69 1010.77 1010.89 1011.05 1011.24 1011.43 1011.61 1011.79 1011.94 1012.07 1012.17 1012.22 1012.24 1012.22 1012.16 1012.06 1011.94 1011.80 1011.65 1011.50 1011.38 1011.27 1011.20 1011.16 1011.18 1011.23 1011.32 1011.45 1011.60 1011.77 1011.95 1012.14 1012.33 1012.51 1012.68 1012.86 1013.02 1013.18 1013.34 1013.48 1013.62
1011.43 1011.31 1011.25 1011.24 1011.28 1011.35 1011.46 1011.58 1011.72 1011.87 1012.01 1012.15 1012.27 1012.37 1012.44 1012.48 1012.47 1012.43 1012.34 1012.22 1012.07 1011.91 1011.75 1011.60 1011.46 1011.36 1011.31 1011.30 1011.33 1011.42 1011.54 1011.69 1011.87 1012.06 1012.25 1012.45 1012.64 1012.82 1013.00 1013.17 1013.33 1013.48 1013.63 1013.77
1011.89 1011.79 1011.72 1011.68 1011.68 1011.70 1011.74 1011.80 1011.88 1011.98 1012.09 1012.21 1012.31 1012.41 1012.49 1012.54 1012.56 1012.54 1012.48 1012.38 1012.26 1012.12 1011.97 1011.83 1011.71 1011.61 1011.56 1011.56 1011.60 1011.68 1011.81 1011.97 1012.15 1012.35 1012.55 1012.75 1012.95 1013.13 1013.31 1013.48 1013.64 1013.80 1013.95 1014.10
1012.17 1012.08 1012.00 1011.93 1011.88 1011.85 1011.83 1011.84 1011.87 1011.93 1012.00 1012.09 1012.19 1012.28 1012.37 1012.45 1012.49 1012.51 1012.49 1012.45 1012.37 1012.28 1012.19 1012.09 1012.01 1011.96 1011.94 1011.96 1012.03 1012.13 1012.27 1012.43 1012.62 1012.81 1013.01 1013.21 1013.40 1013.59 1013.76 1013.93 1014.09 1014.24 1014.39 1014.53
1012.20 1012.10 1012.01 1011.92 1011.84 1011.77 1011.71 1011.68 1011.68 1011.70 1011.75 1011.82 1011.92 1012.02 1012.13 1012.23 1012.32 1012.39 1012.44 1012.46 1012.46 1012.45 1012.43 1012.41 1012.40 1012.41 1012.45 1012.51 1012.61 1012.73 1012.89 1013.05 1013.24 1013.43 1013.61 1013.80 1013.98 1014.15 1014.31 1014.46 1014.61 1014.75 1014.89 1015.01
1011.94 1011.84 1011.73 1011.63 1011.53 1011.45 1011.38 1011.33 1011.32 1011.33 1011.38 1011.46 1011.57 1011.69 1011.83 1011.98 1012.12 1012.25 1012.38 1012.48 1012.58 1012.66 1012.73 1012.80 1012.88 1012.97 1013.07 1013.18 1013.32 1013.47 1013.63 1013.80 1013.97 1014.14 1014.30 1014.46 1014.61 1014.76 1014.89 1015.02 1015.15 1015.26 1015.37 1015.47
1011.39 1011.29 1011.18 1011.08 1010.99 1010.92 1010.86 1010.83 1010.83 1010.87 1010.94 1011.04 1011.19 1011.35 1011.54 1011.74 1011.95 1012.16 1012.36 1012.56 1012.75 1012.93 1013.11 1013.28 1013.44 1013.61 1013.77 1013.94 1014.11 1014.28 1014.44 1014.60 1014.75 1014.89 1015.03 1015.15 1015.26 1015.37 1015.47 1015.56 1015.64 1015.72 1015.79 1015.84
1010.58 1010.48 1010.39 1010.31 1010.24 1010.20 1010.19 1010.20 1010.25 1010.34 1010.47 1010.63 1010.82 1011.05 1011.30 1011.57 1011.85 1012.14 1012.43 1012.72 1013.01 1013.28 1013.55 1013.81 1014.06 1014.29 1014.52 1014.73 1014.92 1015.10 1015.26 1015.41 1015.53 1015.64 1015.73 1015.81 1015.87 1015.93 1015.98 1016.02 1016.05 1016.08 1016.09 1016.10
1009.58 1009.48 1009.41 1009.36 1009.34 1009.36 1009.41 1009.49 1009.62 1009.78 1009.98 1010.22 1010.49 1010.79 1011.11 1011.46 1011.82 1012.19 1012.57 1012.95 1013.32 1013.68 1014.03 1014.37 1014.68 1014.97 1015.24 1015.48 1015.69 1015.88 1016.03 1016.15 1016.24 1016.31 1016.36 1016.38 1016.39 1016.39 1016.38 1016.37 1016.34 1016.31 1016.27 1016.21
Thickness
5521 5522 5519 5521 5522 5517 5515 5526 5531 5546 5544 5553 5551 5547 5544 5540 5537 5534 5532 5529 5526 5523 5520 5516 5512 5508 5505 5503 5501 5499 5498 5498 5497 5496 5496 5496 5496 5496 5496 5497 5498 5499 5500 5501
5511 5515 5513 5515 5524 5523 5521 5523 5527 5533 5540 5548 5543 5537 5535 5533 5531 5529 5527 5525 5522 5518 5515 5511 5507 5503 5499 5497 5494 5492 5491 5491 5490 5488 5488 5488 5488 5487 5488 5489 5490 5491 5492 5493
5517 5511 5510 5527 5540 5532 5528 5528 5527 5529 5540 5540 5535 5532 5531 5529 5526 5524 5523 5520 5517 5514 5510 5506 5502 5497 5493 5490 5487 5485 5484 5484 5482 5481 5480 5480 5479 5479 5480 5480 5481 5482 5482 5483
5503 5505 5511 5549 5534 5532 5529 5529 5526 5528 5532 5530 5528 5525 5523 5521 5520 5519 5517 5514 5511 5508 5504 5500 5495 5490 5486 5483 5480 5478 5477 5476 5475 5473 5473 5472 5472 5472 5471 5471 5472 5472 5473 5473
5494 5504 5523 5539 5530 5522 5520 5528 5530 5525 5524 5522 5517 5515 5521 5518 5514 5512 5510 5507 5504 5501 5497 5493 5488 5482 5478 5476 5473 5472 5471 5470 5468 5466 5465 5464 5464 5464 5464 5463 5463 5463 5463 5464
5485 5490 5512 5540 5521 5513 5513 5524 5527 5520 5517 5513 5507 5516 5523 5512 5506 5504 5501 5498 5495 5493 5489 5485 5480 5475 5471 5470 5468 5467 5465 5463 5461 5459 5458 5457 5456 5456 5455 5454 5454 5454 5454 5454
5479 5485 5512 5525 5511 5503 5512 5528 5518 5512 5509 5505 5503 5509 5508 5502 5498 5495 5493 5491 5487 5484 5481 5479 5474 5469 5466 5465 5463 5461 5459 5457 5455 5453 5451 5450 5449 5448 5447 5446 5446 5446 5446 5446
5479 5480 5504 5513 5499 5505 5518 5513 5508 5504 5501 5497 5496 5495 5493 5491 5490 5488 5486 5483 5480 5478 5475 5471 5467 5463 5462 5460 5458 5454 5452 5450 5449 5447 5445 5443 5441 5440 5439 5439 5439 5438 5438 5438
5491 5505 5511 5501 5502 5502 5498 5498 5498 5496 5493 5489 5487 5487 5486 5484 5483 5482 5479 5477 5474 5471 5469 5465 5461 5458 5457 5456 5451 5448 5446 5445 5443 5440 5438 5436 5434 5433 5432 5431 5431 5431 5431 5431
5480 5496 5498 5494 5491 5489 5487 5487 5488 5486 5483 5480 5479 5479 5478 5478 5477 5475 5473 5470 5468 5465 5463 5461 5457 5453 5452 5449 5445 5442 5441 5439 5437 5434 5432 5429 5427 5426 5425 5425 5424 5424 5423 5423
5476 5488 5487 5489 5485 5483 5482 5480 5478 5476 5474 5472 5471 5471 5471 5471 5471 5469 5466 5464 5461 5460 5459 5457 5454 5449 5446 5443 5439 5437 5435 5433 5430 5428 5425 5423 5421 5420 5420 5419 5417 5417 5416 5415
5485 5490 5483 5488 5483 5478 5475 5473 5471 5469 5469 5466 5464 5464 5464 5464 5463 5462 5460 5458 5455 5454 5453 5451 5448 5444 5441 5437 5434 5432 5430 5427 5425 5422 5420 5417 5416 5415 5412 5411 5409 5407 5406 5405
5479 5477 5473 5474 5471 5468 5467 5466 5464 5462 5461 5461 5459 5457 5456 5456 5456 5454 5453 5451 5449 5448 5446 5444 5441 5438 5435 5431 5428 5425 5424 5421 5419 5416 5414 5411 5409 5408 5407 5405 5401 5400 5398 5397
5464 5460 5459 5461 5461 5460 5458 5456 5454 5453 5452 5451 5451 5449 5448 5448 5447 5446 5445 5444 5442 5440 5438 5436 5434 5432 5429 5425 5421 5419 5416 5413 5411 5409 5407 5404 5402 5401 5399 5398 5397 5395 5392 5389
5453 5450 5451 5452 5451 5448 5446 5445 5443 5444 5444 5443 5442 5441 5440 5439 5439 5439 5438 5436 5433 5431 5430 5429 5427 5425 5421 5418 5415 5412 5409 5407 5404 5402 5399 5397 5394 5392 5391 5389 5388 5387 5384 5382
5443 5440 5439 5439 5439 5438 5437 5435 5435 5436 5436 5435 5434 5433 5432 5431 5431 5431 5429 5427 5425 5425 5424 5422 5420 5418 5414 5411 5408 5405 5403 5399 5396 5394 5392 5389 5386 5384 5383 5381 5380 5378 5376 5374
5430 5431 5430 5430 5430 5430 5429 5428 5427 5427 5427 5426 5426 5425 5424 5423 5423 5422 5421 5419 5418 5417 5416 5414 5413 5410 5407 5404 5401 5399 5396 5392 5388 5386 5384 5381 5379 5377 5375 5373 5371 5369 5367 5364
5424 5425 5424 5423 5422 5422 5421 5420 5419 5418 5418 5418 5417 5416 5415 5415 5415 5415 5413 5411 5409 5408 5408 5407 5405 5402 5399 5397 5394 5391 5388 5385 5382 5380 5377 5373 5371 5368 5366 5364 5362 5360 5358 5354
5413 5414 5413 5412 5412 5412 5412 5412 5411 5411 5410 5409 5408 5408 5408 5408 5407 5406 5404 5402 5401 5401 5402 5400 5397 5394 5392 5390 5386 5383 5380 5377 5374 5371 5368 5365 5362 5359 5357 5354 5352 5350 5348 5345
5402 5402 5401 5401 5401 5400 5401 5402 5402 5402 5402 5400 5400 5400 5400 5400 5398 5396 5395 5395 5397 5396 5394 5391 5389 5387 5384 5381 5377 5375 5372 5369 5366 5363 5360 5357 5354 5351 5349 5346 5343 5341 5338 5335
5392 5391 5391 5390 5390 5391 5391 5392 5392 5393 5393 5392 5392 5392 5392 5392 5389 5387 5386 5389 5390 5386 5384 5382 5380 5378 5375 5372 5368 5366 5363 5360 5358 5355 5352 5349 5346 5343 5340 5337 5334 5331 5329 5326
5381 5381 5381 5380 5381 5382 5383 5383 5383 5383 5384 5383 5383 5383 5382 5382 5381 5379 5379 5379 5379 5377 5375 5374 5372 5369 5366 5363 5359 5357 5354 5351 5349 5346 5343 5341 5338 5335 5332 5329 5326 5323 5320 5317
5371 5371 5371 5371 5372 5373 5374 5374 5374 5374 5375 5375 5375 5374 5374 5374 5373 5371 5372 5372 5369 5367 5366 5364 5363 5360 5357 5353 5350 5348 5345 5342 5340 5337 5334 5332 5329 5327 5324 5321 5318 5314 5311 5308
5362 5362 5361 5362 5361 5362 5364 5367 5366 5366 5366 5366 5366 5365 5364 5364 5364 5363 5362 5361 5359 5357 5356 5355 5353 5351 5347 5345 5342 5339 5337 5334 5331 5328 5325 5323 5320 5318 5315 5312 5309 5306 5302 5299
5353 5353 5352 5352 5353 5356 5357 5357 5357 5357 5358 5358 5358 5357 5355 5355 5354 5354 5352 5350 5349 5347 5346 5345 5344 5341 5338 5336 5333 5331 5329 5326 5323 5320 5318 5315 5312 5309 5306 5303 5300 5297 5294 5291
5345 5347 5348 5348 5348 5349 5349 5349 5350 5351 5351 5351 5351 5350 5348 5346 5344 5343 5342 5340 5339 5337 5336 5335 5334 5332 5329 5327 5325 5323 5320 5318 5316 5313 5311 5308 5305 5302 5299 5295 5292 5289 5286 5283
5339 5340 5340 5341 5342 5342 5342 5342 5342 5344 5344 5343 5343 5342 5340 5337 5335 5334 5332 5331 5330 5329 5327 5326 5325 5323 5321 5319 5317 5315 5313 5311 5309 5306 5304 5301 5298 5295 5292 5287 5284 5281 5278 5275